Flag for Spain Weather past 2 weeks in Barcelona, Barcelona, Spain

Now
68 °F

Light rain. Passing clouds.


Feels Like: 68 °F
Forecast: 65 / 76 °F
Wind: 6 mph from Northeast

Location: Barcelona Airport

Current Time: Sep 30, 2014 at 12:37:50 PM

Latest Report: Sep 30, 2014 at 12:00 PM


Visibility: 6 mi

Pressure: 30.24 "Hg

Humidity: 94%

Dew point: 66 °F

Location of BarcelonaLocation

Historic Weather in Barcelona — Graph

°F

Barcelona temperature yesterday

Maximum temperature yesterday: 77 °F (at 12:30 PM)
Minimum temperature yesterday: 64 °F (at 6:00 AM)
Average temperature yesterday: 70 °F

Past Weeks' High & Low Weather Summary

 TemperatureHumidityPressure
High82 °F (Sep 18, 1:00 PM)100% (Sep 28, 1:30 PM)30.27 "Hg (Sep 28, 1:30 PM)
Low59 °F (Sep 26, 8:00 AM)39% (Sep 27, 12:30 PM)29.71 "Hg (Sep 17, 4:30 PM)
Average71 °F78%30.01 "Hg
* Reported Sep 15 11:00 AM — Sep 30 11:30 AM, Barcelona, Weather by CustomWeather, © 2014

Note: Actual official high and low records may vary slightly from our data, if they occured in-between our weather recording intervals... More about our weather records

Advertising

Barcelona weather history for previous 24 hours

 ConditionsComfort  
Time TempWeatherWind HumidityBarometerVisibility
11:30 AM
Sep 30
68 °FLight rain. Scattered clouds.5 mph94%30.24 "Hg5 mi
11:00 AM68 °FLight rain. Partly sunny.3 mph88%30.24 "Hg4 mi
10:30 AM68 °FLight rain. Scattered clouds.2 mph88%30.24 "Hg5 mi
10:00 AM68 °FLight rain. Scattered clouds.3 mph88%30.21 "Hg6 mi
9:30 AM68 °FLight rain. Scattered clouds.3 mph88%30.21 "HgN/A
9:00 AM68 °FScattered clouds.6 mph88%30.21 "HgN/A
8:30 AM68 °FPassing clouds.3 mph88%30.18 "HgN/A
8:00 AM68 °FPassing clouds.3 mph94%30.18 "HgN/A
7:30 AM68 °FPassing clouds.7 mph94%30.15 "HgN/A
7:00 AM68 °FPassing clouds.3 mph94%30.18 "HgN/A
6:30 AM68 °FPassing clouds.1 mph94%30.18 "HgN/A
6:00 AM68 °FPassing clouds.3 mph94%30.18 "HgN/A
5:30 AM68 °FPassing clouds.2 mph94%30.18 "HgN/A
5:00 AM68 °FPassing clouds.2 mph94%30.18 "HgN/A
4:30 AM68 °FPassing clouds.3 mph94%30.18 "HgN/A
4:00 AM70 °FPassing clouds.6 mph94%30.18 "HgN/A
3:30 AM70 °FPartly cloudy.7 mph94%30.18 "HgN/A
3:00 AM70 °FPartly cloudy.6 mph94%30.21 "HgN/A
2:30 AM70 °FPartly cloudy.2 mph88%30.21 "HgN/A
2:00 AM70 °FLight rain. Partly cloudy.3 mph88%30.21 "Hg5 mi
1:30 AM70 °FPartly cloudy.1 mph88%30.21 "HgN/A
1:00 AM70 °FPartly cloudy.3 mph88%30.18 "HgN/A
12:30 AM70 °FPartly cloudy.3 mph88%30.18 "HgN/A
12:00 AM70 °FPassing clouds.No wind88%30.21 "HgN/A
11:30 PM
Sep 29
70 °FPassing clouds.5 mph88%30.21 "HgN/A
11:00 PM70 °FPassing clouds.6 mph88%30.21 "HgN/A
10:30 PM72 °FPassing clouds.3 mph94%30.18 "HgN/A
10:00 PM72 °FPassing clouds.6 mph94%30.21 "HgN/A
9:30 PM73 °FPassing clouds.6 mph89%30.18 "HgN/A
9:00 PM72 °FPassing clouds.3 mph83%30.18 "HgN/A
8:30 PM72 °FScattered clouds.1 mph83%30.18 "HgN/A
8:00 PM72 °FScattered clouds.3 mph83%30.18 "HgN/A
7:30 PM72 °FPassing clouds.5 mph83%30.18 "HgN/A
7:00 PM72 °FPassing clouds.5 mph88%30.18 "HgN/A
6:30 PM72 °FPassing clouds.5 mph83%30.18 "HgN/A
6:00 PM73 °FPassing clouds.5 mph78%30.18 "HgN/A
5:30 PM73 °FPassing clouds.6 mph74%30.15 "HgN/A
5:00 PM73 °FPassing clouds.10 mph78%30.15 "HgN/A
4:30 PM77 °FPassing clouds.3 mph69%30.15 "HgN/A
4:00 PM77 °FPassing clouds.5 mph65%30.15 "HgN/A
3:30 PM75 °FPassing clouds.5 mph74%30.18 "HgN/A
3:00 PM75 °FPassing clouds.6 mph74%30.18 "HgN/A
2:30 PM73 °FPassing clouds.9 mph78%30.18 "HgN/A
2:00 PM75 °FPassing clouds.8 mph69%30.18 "HgN/A
1:30 PM75 °FPassing clouds.6 mph69%30.18 "HgN/A
1:00 PM75 °FPassing clouds.8 mph74%30.18 "HgN/A
12:30 PM77 °FPassing clouds.5 mph69%30.18 "HgN/A
12:00 PM75 °FPassing clouds.5 mph69%30.18 "HgN/A
Weather by CustomWeather, © 2014

See weather overviewHow to use our weather pages